M I D A S
Marine Information and Data Acquisition System
Tripno 69 of the Zeeleeuw from 2001-11-30 09:45:00 to 2001-11-30 15:10:00
Back to CruiseResearch ActivitiesStationsMapUnderway DataData graphs

EquipmentUnitsComments
TimeDGPSUTC
LatitudeDGPSDM.mWGS84
LongitudeDGPSDM.mWGS84
SpeedMeteo Stationm/sRelative wind speed
DirectionMeteo StationdegRelative wind direction
TemperatureMeteo Stationdeg CelciusAir temperature
PressureMeteo StationPaAtmospheric pressure
HumidityMeteo Station%Relative humidity
Missing or incorrect values are displayed as -999
Metereological data collected by the RV Zeeleeuw from 2001-11-30 09:45:00 to 2001-11-30 15:10:00
                                                                                    Next 1000 lines
Time Latitude Longitude Speed Direction Temperature Pressure Humidity
2001-11-30 09:45:08 51°19.984 2°59.489 1.1 251 10.9 100940 96
2001-11-30 09:45:13 51°20 2°59.505 0.8 256 10.9 100930 96
2001-11-30 09:45:19 51°20.02 2°59.523 2.6 87 10.9 100930 96
2001-11-30 09:45:24 51°20.037 2°59.538 1.2 300 10.9 100940 96
2001-11-30 09:45:29 51°20.053 2°59.553 0.9 198 10.9 100940 96
2001-11-30 09:45:34 51°20.07 2°59.567 1.4 19 10.9 100930 96
2001-11-30 09:45:39 51°20.087 2°59.582 1.6 166 10.9 100930 96
2001-11-30 09:45:43 51°20.1 2°59.594 1.4 275 10.8 100930 96
2001-11-30 09:45:49 51°20.12 2°59.612 0.9 338 10.8 100930 96
2001-11-30 09:45:54 51°20.137 2°59.627 0.7 128 10.8 100940 96
2001-11-30 09:45:59 51°20.153 2°59.643 0.8 65 10.8 100940 96
2001-11-30 09:46:03 51°20.166 2°59.655 1.2 53 10.8 100930 96
2001-11-30 09:46:09 51°20.186 2°59.674 3.3 316 10.8 100930 96
2001-11-30 09:46:13 51°20.199 2°59.685 2.2 158 10.8 100940 96
2001-11-30 09:46:18 51°20.216 2°59.699 1.2 355 10.8 100940 96
2001-11-30 09:46:24 51°20.237 2°59.716 1.2 95 10.8 100930 96
2001-11-30 09:46:27 51°20.247 2°59.725 2.1 1 10.8 100930 96
2001-11-30 09:46:33 51°20.267 2°59.743 1.3 204 10.8 100930 96
2001-11-30 09:46:39 51°20.286 2°59.763 0.6 52 10.8 100930 96
2001-11-30 09:46:44 51°20.302 2°59.781 0.8 80 10.8 100940 96
2001-11-30 09:46:49 51°20.318 2°59.797 0.9 231 10.8 100940 96
2001-11-30 09:46:54 51°20.333 2°59.814 0.6 267 10.8 100930 96
2001-11-30 09:46:59 51°20.349 2°59.831 0.9 266 10.8 100930 96
2001-11-30 09:47:03 51°20.362 2°59.844 1.1 268 10.8 100940 96
2001-11-30 09:47:08 51°20.379 2°59.86 0.8 205 10.8 100940 96
2001-11-30 09:47:14 51°20.398 2°59.88 0.5 6 10.8 100940 96
2001-11-30 09:47:19 51°20.414 2°59.896 0.9 215 10.8 100940 96
2001-11-30 09:47:23 51°20.427 2°59.908 1.1 119 10.8 100940 96
2001-11-30 09:47:29 51°20.447 2°59.927 1.3 1 10.8 100940 96
2001-11-30 09:47:33 51°20.461 2°59.939 1.1 324 10.8 100930 96
2001-11-30 09:47:38 51°20.477 2°59.954 1 343 10.8 100930 96
2001-11-30 09:47:43 51°20.494 2°59.969 1.1 265 10.8 100940 96
2001-11-30 09:47:49 51°20.513 2°59.989 1.3 243 10.8 100940 96
2001-11-30 09:47:54 51°20.53 3°0.002 1.2 233 10.8 100940 96
2001-11-30 09:47:59 51°20.547 3°0.019 1.1 22 10.8 100940 96
2001-11-30 09:48:02 51°20.557 3°0.027 1.2 32 10.8 100940 96
2001-11-30 09:48:08 51°20.577 3°0.045 1.3 342 10.8 100940 96
2001-11-30 09:48:13 51°20.593 3°0.06 1.3 265 10.8 100940 96
2001-11-30 09:48:19 51°20.613 3°0.078 0.9 332 10.8 100940 96
2001-11-30 09:48:23 51°20.626 3°0.091 0.8 348 10.8 100940 96
2001-11-30 09:48:29 51°20.647 3°0.108 1.2 233 10.8 100940 96
2001-11-30 09:48:34 51°20.663 3°0.125 0.9 240 10.8 100940 96
2001-11-30 09:48:39 51°20.68 3°0.139 1 338 10.8 100940 96
2001-11-30 09:48:43 51°20.692 3°0.153 0.8 256 10.8 100930 96
2001-11-30 09:48:48 51°20.709 3°0.167 1.1 266 10.8 100930 96
2001-11-30 09:48:53 51°20.725 3°0.184 1.1 237 10.8 100930 96
2001-11-30 09:48:59 51°20.745 3°0.201 0.7 76 10.8 100930 96
2001-11-30 09:49:03 51°20.758 3°0.216 0.4 153 10.8 100930 96
2001-11-30 09:49:09 51°20.778 3°0.232 0.9 68 10.8 100930 96
2001-11-30 09:49:14 51°20.794 3°0.25 0.8 58 10.8 100930 96
2001-11-30 09:49:19 51°20.811 3°0.264 1.1 16 10.8 100930 96
2001-11-30 09:49:23 51°20.823 3°0.278 1.1 357 10.8 100930 96
2001-11-30 09:49:29 51°20.843 3°0.294 1.3 271 10.8 100930 96
2001-11-30 09:49:34 51°20.859 3°0.312 0.8 223 10.8 100930 96
2001-11-30 09:49:39 51°20.876 3°0.325 1.3 239 10.8 100930 96
2001-11-30 09:49:43 51°20.889 3°0.338 1 269 10.8 100930 96
2001-11-30 09:49:49 51°20.909 3°0.356 1.8 211 10.8 100930 96
2001-11-30 09:49:54 51°20.925 3°0.373 1 73 10.7 100930 96
2001-11-30 09:49:59 51°20.942 3°0.387 1.2 339 10.7 100930 96
2001-11-30 09:50:03 51°20.956 3°0.399 1.3 60 10.8 100930 96
2001-11-30 09:50:09 51°20.976 3°0.417 0.9 346 10.8 100930 96
2001-11-30 09:50:14 51°20.992 3°0.434 1.4 183 10.8 100930 96
2001-11-30 09:50:19 51°21.009 3°0.449 1.8 155 10.8 100930 96
2001-11-30 09:50:23 51°21.022 3°0.461 1.3 13 10.8 100940 96
2001-11-30 09:50:29 51°21.042 3°0.48 1.1 298 10.8 100940 96
2001-11-30 09:50:34 51°21.058 3°0.495 1.1 189 10.8 100930 96
2001-11-30 09:50:39 51°21.074 3°0.51 1.3 247 10.8 100930 96
2001-11-30 09:50:43 51°21.088 3°0.522 1.5 226 10.8 100930 96
2001-11-30 09:50:49 51°21.107 3°0.543 1.6 28 10.8 100930 96
2001-11-30 09:50:54 51°21.123 3°0.557 0.5 40 10.8 100930 96
2001-11-30 09:50:59 51°21.139 3°0.574 1.3 62 10.8 100930 96
2001-11-30 09:51:03 51°21.153 3°0.585 1 104 10.8 100930 96
2001-11-30 09:51:08 51°21.169 3°0.602 1.2 309 10.8 100930 96
2001-11-30 09:51:14 51°21.189 3°0.62 1.7 337 10.8 100930 96
2001-11-30 09:51:19 51°21.205 3°0.637 0.7 71 10.8 100930 96
2001-11-30 09:51:23 51°21.218 3°0.648 0.9 186 10.8 100930 96
2001-11-30 09:51:28 51°21.234 3°0.666 0.9 59 10.8 100930 96
2001-11-30 09:51:34 51°21.254 3°0.682 1.5 338 10.8 100930 96
2001-11-30 09:51:39 51°21.27 3°0.699 1 242 10.8 100930 96
2001-11-30 09:51:43 51°21.284 3°0.71 0.9 175 10.8 100930 96
2001-11-30 09:51:48 51°21.3 3°0.727 0.9 318 10.8 100930 96
2001-11-30 09:51:54 51°21.32 3°0.744 1.8 114 10.8 100930 96
2001-11-30 09:51:59 51°21.335 3°0.762 1.2 262 10.8 100930 96
2001-11-30 09:52:03 51°21.349 3°0.772 1 227 10.8 100930 96
2001-11-30 09:52:09 51°21.368 3°0.793 1.1 209 10.8 100930 96
2001-11-30 09:52:14 51°21.385 3°0.807 1.5 11 10.8 100940 96
2001-11-30 09:52:18 51°21.397 3°0.821 1.1 331 10.8 100940 96
2001-11-30 09:52:23 51°21.414 3°0.835 1.2 223 10.8 100940 96
2001-11-30 09:52:29 51°21.433 3°0.855 1 232 10.8 100940 96
2001-11-30 09:52:34 51°21.45 3°0.868 0.7 228 10.8 100930 96
2001-11-30 09:52:39 51°21.466 3°0.886 1 266 10.8 100930 96
2001-11-30 09:52:43 51°21.48 3°0.896 1.2 214 10.8 100930 96
2001-11-30 09:52:48 51°21.495 3°0.913 0.5 8 10.8 100930 96
2001-11-30 09:52:53 51°21.512 3°0.927 1.6 336 10.8 100940 96
2001-11-30 09:52:59 51°21.531 3°0.946 1.1 227 10.8 100940 96
2001-11-30 09:53:04 51°21.548 3°0.96 0.9 84 10.8 100940 96
2001-11-30 09:53:09 51°21.564 3°0.976 0.5 14 10.8 100940 96
2001-11-30 09:53:14 51°21.581 3°0.99 0.6 1 10.8 100940 96
2001-11-30 09:53:19 51°21.597 3°1.006 0.8 115 10.8 100940 96
2001-11-30 09:53:23 51°21.611 3°1.017 0.7 255 10.8 100930 96
2001-11-30 09:53:28 51°21.627 3°1.033 1.2 223 10.8 100930 96
2001-11-30 09:53:34 51°21.647 3°1.049 1.1 174 10.8 100940 96
2001-11-30 09:53:38 51°21.66 3°1.063 0.7 69 10.8 100940 96
2001-11-30 09:53:44 51°21.68 3°1.078 1 71 10.8 100930 96
2001-11-30 09:53:49 51°21.696 3°1.094 0.9 257 10.8 100930 96
2001-11-30 09:53:53 51°21.71 3°1.104 0.8 237 10.8 100940 96
2001-11-30 09:53:58 51°21.726 3°1.119 1 231 10.8 100940 96
2001-11-30 09:54:02 51°21.739 3°1.129 1.5 255 10.8 100940 96
2001-11-30 09:54:07 51°21.756 3°1.142 0.8 357 10.8 100940 96
2001-11-30 09:54:14 51°21.78 3°1.159 1.6 332 10.8 100940 96
2001-11-30 09:54:19 51°21.797 3°1.174 1.2 231 10.8 100940 96
2001-11-30 09:54:23 51°21.811 3°1.183 1.3 308 10.8 100930 96
2001-11-30 09:54:29 51°21.831 3°1.199 1.1 4 10.8 100930 96
2001-11-30 09:54:34 51°21.849 3°1.21 1.9 262 10.8 100940 96
2001-11-30 09:54:39 51°21.866 3°1.223 2.1 129 10.8 100940 96
2001-11-30 09:54:44 51°21.883 3°1.235 1.1 304 10.8 100940 96
2001-11-30 09:54:49 51°21.9 3°1.248 1.4 57 10.8 100940 96
2001-11-30 09:54:53 51°21.914 3°1.259 0.9 343 10.8 100940 96
2001-11-30 09:54:58 51°21.931 3°1.27 2.6 329 10.8 100940 96
2001-11-30 09:55:04 51°21.951 3°1.286 1.4 262 10.8 100940 96
2001-11-30 09:55:08 51°21.966 3°1.296 1.3 13 10.8 100940 96
2001-11-30 09:55:13 51°21.982 3°1.31 1.1 85 10.8 100940 96
2001-11-30 09:55:19 51°22.003 3°1.324 1.5 221 10.8 100940 96
2001-11-30 09:55:22 51°22.013 3°1.334 1.4 239 10.8 100930 96
2001-11-30 09:55:29 51°22.038 3°1.35 1.6 244 10.8 100930 96
2001-11-30 09:55:32 51°22.047 3°1.36 1.4 248 10.8 100940 96
2001-11-30 09:55:39 51°22.072 3°1.375 1.3 322 10.8 100940 96
2001-11-30 09:55:43 51°22.085 3°1.388 2.2 244 10.8 100930 96
2001-11-30 09:55:49 51°22.106 3°1.401 1.4 270 10.8 100930 96
2001-11-30 09:55:54 51°22.122 3°1.417 1.1 271 10.8 100940 96
2001-11-30 09:55:59 51°22.14 3°1.428 1.4 308 10.8 100940 96
2001-11-30 09:56:04 51°22.156 3°1.443 0.6 110 10.8 100930 96
2001-11-30 09:56:09 51°22.174 3°1.454 2.3 68 10.8 100930 96
2001-11-30 09:56:13 51°22.188 3°1.467 2.1 224 10.8 100930 96
2001-11-30 09:56:19 51°22.208 3°1.48 1.9 228 10.8 100930 96
2001-11-30 09:56:23 51°22.221 3°1.493 1 246 10.8 100930 96
2001-11-30 09:56:28 51°22.239 3°1.505 1.1 249 10.8 100930 96
2001-11-30 09:56:33 51°22.255 3°1.52 1.2 314 10.8 100930 96
2001-11-30 09:56:39 51°22.276 3°1.534 1.4 256 10.8 100930 96
2001-11-30 09:56:43 51°22.29 3°1.547 0.7 130 10.8 100930 96
2001-11-30 09:56:47 51°22.303 3°1.557 1.4 222 10.8 100930 96
2001-11-30 09:56:54 51°22.326 3°1.576 1.1 246 10.8 100930 96
2001-11-30 09:56:59 51°22.344 3°1.588 1.6 244 10.8 100930 96
2001-11-30 09:57:03 51°22.357 3°1.599 1.5 255 10.8 100930 96
2001-11-30 09:57:09 51°22.378 3°1.613 1 256 10.8 100930 96
2001-11-30 09:57:14 51°22.395 3°1.627 1.8 344 10.8 100930 96
2001-11-30 09:57:19 51°22.412 3°1.639 1.7 239 10.8 100930 96
2001-11-30 09:57:24 51°22.429 3°1.652 1.6 225 10.8 100930 96
2001-11-30 09:57:28 51°22.443 3°1.661 2.8 309 10.8 100930 96
2001-11-30 09:57:34 51°22.463 3°1.677 1.7 18 10.8 100930 96
2001-11-30 09:57:39 51°22.481 3°1.688 1.9 353 10.8 100930 96
2001-11-30 09:57:44 51°22.498 3°1.702 1.5 24 10.8 100930 96
2001-11-30 09:57:48 51°22.512 3°1.712 2 358 10.8 100930 96
2001-11-30 09:57:53 51°22.529 3°1.725 1.6 269 10.8 100930 96
2001-11-30 09:57:59 51°22.55 3°1.739 1.1 328 10.8 100930 96
2001-11-30 09:58:03 51°22.564 3°1.75 2.4 175 10.8 100930 96
2001-11-30 09:58:09 51°22.585 3°1.764 2 159 10.8 100930 96
2001-11-30 09:58:13 51°22.599 3°1.775 1.4 1 10.8 100930 96
2001-11-30 09:58:19 51°22.62 3°1.79 1.2 47 10.8 100930 96
2001-11-30 09:58:24 51°22.637 3°1.804 2.4 258 10.8 100930 96
2001-11-30 09:58:28 51°22.65 3°1.814 1.3 68 10.8 100930 96
2001-11-30 09:58:33 51°22.668 3°1.826 2.3 6 10.8 100930 96
2001-11-30 09:58:38 51°22.685 3°1.839 1.6 71 10.8 100930 96
2001-11-30 09:58:43 51°22.703 3°1.851 1.6 176 10.8 100930 96
2001-11-30 09:58:48 51°22.719 3°1.865 1.3 23 10.8 100930 96
2001-11-30 09:58:52 51°22.734 3°1.873 1.1 358 10.8 100930 96
2001-11-30 09:58:58 51°22.753 3°1.89 1.2 257 10.8 100930 96
2001-11-30 09:59:03 51°22.771 3°1.902 1.5 245 10.8 100930 96
2001-11-30 09:59:08 51°22.788 3°1.917 1.4 226 10.8 100930 96
2001-11-30 09:59:14 51°22.809 3°1.931 1.8 216 10.8 100930 96
2001-11-30 09:59:18 51°22.822 3°1.943 1.4 203 10.8 100930 96
2001-11-30 09:59:23 51°22.839 3°1.955 1.9 240 10.8 100930 96
2001-11-30 09:59:28 51°22.856 3°1.969 1.8 164 10.8 100930 96
2001-11-30 09:59:33 51°22.873 3°1.981 1.3 316 10.8 100930 96
2001-11-30 09:59:39 51°22.893 3°1.998 1.6 166 10.8 100930 96
2001-11-30 09:59:43 51°22.908 3°2.007 2.2 198 10.8 100940 96
2001-11-30 09:59:48 51°22.924 3°2.023 1.2 283 10.8 100940 96
2001-11-30 09:59:52 51°22.938 3°2.031 1.1 136 10.8 100930 96
2001-11-30 09:59:58 51°22.958 3°2.049 1.9 326 10.8 100930 96
2001-11-30 10:00:03 51°22.976 3°2.06 1.3 250 10.7 100930 96
2001-11-30 10:00:09 51°22.996 3°2.078 1.3 112 10.7 100930 96
2001-11-30 10:00:13 51°23.01 3°2.086 1 15 10.7 100930 96
2001-11-30 10:00:18 51°23.026 3°2.102 1.6 204 10.7 100930 96
2001-11-30 10:00:22 51°23.04 3°2.111 1.2 311 10.7 100930 96
2001-11-30 10:00:29 51°23.064 3°2.132 1.5 279 10.7 100930 96
2001-11-30 10:00:33 51°23.078 3°2.14 1.4 9 10.7 100930 96
2001-11-30 10:00:39 51°23.098 3°2.158 1.3 120 10.7 100930 96
2001-11-30 10:00:43 51°23.113 3°2.167 2.7 12 10.7 100930 96
2001-11-30 10:00:48 51°23.13 3°2.182 3.7 266 10.7 100930 96
2001-11-30 10:00:54 51°23.151 3°2.195 2.2 43 10.7 100930 96
2001-11-30 10:00:57 51°23.161 3°2.205 1.4 13 10.7 100930 96
2001-11-30 10:01:03 51°23.183 3°2.219 1.9 357 10.7 100930 96
2001-11-30 10:01:08 51°23.2 3°2.234 2.4 211 10.7 100930 96
2001-11-30 10:01:13 51°23.217 3°2.246 2.5 148 10.7 100930 96
2001-11-30 10:01:19 51°23.238 3°2.264 1.5 326 10.7 100930 96
2001-11-30 10:01:23 51°23.252 3°2.273 1.8 353 10.7 100930 96
2001-11-30 10:01:29 51°23.272 3°2.291 1.9 235 10.7 100930 96
2001-11-30 10:01:34 51°23.29 3°2.303 1.3 113 10.7 100930 96
2001-11-30 10:01:38 51°23.303 3°2.316 1.8 202 10.7 100930 96
2001-11-30 10:01:42 51°23.317 3°2.327 1.2 270 10.7 100930 96
2001-11-30 10:01:49 51°23.341 3°2.347 1.9 249 10.7 100930 96
2001-11-30 10:01:53 51°23.355 3°2.357 1.6 218 10.7 100940 96
2001-11-30 10:01:59 51°23.375 3°2.375 1.3 88 10.7 100940 96
2001-11-30 10:02:03 51°23.389 3°2.385 1.1 230 10.7 100940 96
2001-11-30 10:02:08 51°23.406 3°2.398 1.4 235 10.7 100940 96
2001-11-30 10:02:14 51°23.427 3°2.415 2.4 81 10.7 100940 96
2001-11-30 10:02:19 51°23.444 3°2.429 1.6 246 10.7 100940 96
2001-11-30 10:02:22 51°23.454 3°2.439 1.6 244 10.7 100930 96
2001-11-30 10:02:28 51°23.475 3°2.453 2.2 247 10.7 100930 96
2001-11-30 10:02:32 51°23.489 3°2.466 1.5 225 10.7 100930 96
2001-11-30 10:02:38 51°23.51 3°2.48 1.5 195 10.7 100930 96
2001-11-30 10:02:43 51°23.527 3°2.495 1.9 354 10.7 100930 96
2001-11-30 10:02:47 51°23.541 3°2.504 2.3 322 10.7 100930 96
2001-11-30 10:02:53 51°23.561 3°2.523 1.4 3 10.7 100930 96
2001-11-30 10:02:59 51°23.582 3°2.537 1.5 21 10.7 100930 96
2001-11-30 10:03:03 51°23.595 3°2.55 1.8 214 10.7 100930 96
2001-11-30 10:03:08 51°23.613 3°2.562 1 246 10.7 100930 96
2001-11-30 10:03:13 51°23.63 3°2.579 1.3 226 10.7 100930 96
2001-11-30 10:03:19 51°23.651 3°2.593 1.5 70 10.7 100930 96
2001-11-30 10:03:23 51°23.664 3°2.606 1.3 344 10.7 100930 96
2001-11-30 10:03:29 51°23.686 3°2.62 1.5 292 10.7 100930 96
2001-11-30 10:03:34 51°23.703 3°2.636 1.5 129 10.7 100930 96
2001-11-30 10:03:39 51°23.721 3°2.648 2 4 10.7 100930 96
2001-11-30 10:03:43 51°23.734 3°2.661 1.6 299 10.7 100930 96
2001-11-30 10:03:47 51°23.748 3°2.67 1.4 227 10.7 100930 96
2001-11-30 10:03:53 51°23.769 3°2.688 2.2 244 10.7 100930 96
2001-11-30 10:03:59 51°23.79 3°2.703 1.8 274 10.7 100930 96
2001-11-30 10:04:03 51°23.803 3°2.716 1.7 265 10.7 100930 96
2001-11-30 10:04:09 51°23.825 3°2.73 1.7 70 10.7 100930 96
2001-11-30 10:04:14 51°23.841 3°2.747 1.2 345 10.7 100930 96
2001-11-30 10:04:19 51°23.859 3°2.758 2.2 76 10.7 100930 96
2001-11-30 10:04:23 51°23.872 3°2.772 2.4 267 10.7 100930 96
2001-11-30 10:04:28 51°23.89 3°2.785 1.6 134 10.7 100930 96
2001-11-30 10:04:32 51°23.904 3°2.797 1.4 337 10.7 100930 96
2001-11-30 10:04:38 51°23.924 3°2.813 1.8 317 10.7 100930 96
2001-11-30 10:04:44 51°23.945 3°2.832 1.2 260 10.7 100930 96
2001-11-30 10:04:49 51°23.963 3°2.843 1 345 10.7 100930 96
2001-11-30 10:04:53 51°23.976 3°2.856 1.8 354 10.7 100930 96
2001-11-30 10:04:58 51°23.994 3°2.869 1.2 92 10.7 100930 96
2001-11-30 10:05:03 51°24.011 3°2.884 2 109 10.7 100930 96
2001-11-30 10:05:07 51°24.025 3°2.896 1.7 130 10.7 100930 96
2001-11-30 10:05:13 51°24.046 3°2.913 1.8 211 10.7 100930 96
2001-11-30 10:05:18 51°24.063 3°2.926 1.8 264 10.7 100930 96
2001-11-30 10:05:22 51°24.077 3°2.937 1.4 249 10.7 100930 96
2001-11-30 10:05:27 51°24.094 3°2.952 1.9 223 10.7 100930 96
2001-11-30 10:05:31 51°24.109 3°2.963 2.2 240 10.7 100930 96
2001-11-30 10:05:38 51°24.132 3°2.984 2.1 4 10.7 100930 96
2001-11-30 10:05:44 51°24.153 3°3.002 1.7 327 10.7 100930 96
2001-11-30 10:05:49 51°24.171 3°3.015 1.8 112 10.7 100930 96
2001-11-30 10:05:54 51°24.188 3°3.031 1.9 106 10.7 100930 96
2001-11-30 10:05:58 51°24.202 3°3.041 2.7 265 10.7 100930 96
2001-11-30 10:06:03 51°24.219 3°3.055 2 262 10.7 100930 96
2001-11-30 10:06:07 51°24.233 3°3.066 2.1 46 10.7 100930 96
2001-11-30 10:06:14 51°24.258 3°3.084 1.8 91 10.7 100930 96
2001-11-30 10:06:19 51°24.276 3°3.096 2.5 164 10.7 100930 96
2001-11-30 10:06:23 51°24.29 3°3.105 2.1 247 10.7 100930 96
2001-11-30 10:06:27 51°24.304 3°3.117 1.3 133 10.7 100930 96
2001-11-30 10:06:33 51°24.326 3°3.129 1.7 228 10.7 100920 96
2001-11-30 10:06:37 51°24.339 3°3.141 2.6 3 10.7 100920 96
2001-11-30 10:06:44 51°24.365 3°3.155 2.1 315 10.7 100930 96
2001-11-30 10:06:48 51°24.379 3°3.167 3.7 250 10.7 100930 96
2001-11-30 10:06:54 51°24.401 3°3.179 2.2 145 10.7 100920 96
2001-11-30 10:06:59 51°24.418 3°3.193 3.1 298 10.7 100920 96
2001-11-30 10:07:03 51°24.433 3°3.2 2.6 32 10.7 100930 96
2001-11-30 10:07:08 51°24.451 3°3.214 2 35 10.7 100930 96
2001-11-30 10:07:13 51°24.469 3°3.224 1.5 338 10.7 100930 96
2001-11-30 10:07:19 51°24.489 3°3.242 2.1 124 10.7 100930 96
2001-11-30 10:07:23 51°24.504 3°3.25 2.2 131 10.7 100930 96
2001-11-30 10:07:28 51°24.522 3°3.263 3 186 10.7 100930 96
2001-11-30 10:07:34 51°24.543 3°3.278 1.9 38 10.7 100930 96
2001-11-30 10:07:39 51°24.56 3°3.292 2.5 315 10.7 100930 96
2001-11-30 10:07:43 51°24.574 3°3.303 1.7 16 10.7 100930 96
2001-11-30 10:07:47 51°24.588 3°3.313 2.7 268 10.7 100930 96
2001-11-30 10:07:54 51°24.612 3°3.333 1.2 265 10.7 100930 96
2001-11-30 10:07:59 51°24.63 3°3.347 1.6 67 10.7 100930 96
2001-11-30 10:08:03 51°24.643 3°3.36 1.7 18 10.8 100930 96
2001-11-30 10:08:09 51°24.664 3°3.375 2.1 326 10.8 100930 96
2001-11-30 10:08:13 51°24.678 3°3.387 1.7 332 10.8 100930 96
2001-11-30 10:08:19 51°24.699 3°3.402 1.4 344 10.8 100930 96
2001-11-30 10:08:23 51°24.712 3°3.415 2.9 96 10.7 100940 96
2001-11-30 10:08:29 51°24.734 3°3.429 2.1 220 10.7 100940 96
2001-11-30 10:08:33 51°24.747 3°3.441 2.4 213 10.8 100930 96
2001-11-30 10:08:39 51°24.768 3°3.455 1.6 226 10.8 100930 96
2001-11-30 10:08:44 51°24.785 3°3.47 1.1 245 10.8 100930 96
2001-11-30 10:08:48 51°24.8 3°3.478 1.5 246 10.8 100930 96
2001-11-30 10:08:52 51°24.813 3°3.49 2.2 254 10.7 100930 96
2001-11-30 10:08:59 51°24.838 3°3.506 2.4 26 10.7 100930 96
2001-11-30 10:09:03 51°24.851 3°3.519 2.3 323 10.7 100930 96
2001-11-30 10:09:09 51°24.872 3°3.533 1.6 178 10.7 100930 96
2001-11-30 10:09:14 51°24.889 3°3.549 1.7 133 10.8 100930 96
2001-11-30 10:09:19 51°24.906 3°3.56 2.2 3 10.8 100930 96
2001-11-30 10:09:23 51°24.92 3°3.573 1.1 217 10.8 100930 96
2001-11-30 10:09:27 51°24.933 3°3.583 1.8 136 10.8 100930 96
2001-11-30 10:09:34 51°24.957 3°3.604 1.3 314 10.8 100930 96
2001-11-30 10:09:39 51°24.975 3°3.616 0.7 4 10.8 100930 96
2001-11-30 10:09:44 51°24.991 3°3.632 1.3 304 10.8 100930 96
2001-11-30 10:09:48 51°25.005 3°3.643 1.6 182 10.8 100930 96
2001-11-30 10:09:53 51°25.022 3°3.658 1.5 203 10.8 100930 96
2001-11-30 10:09:58 51°25.039 3°3.672 1.1 340 10.8 100930 96
2001-11-30 10:10:03 51°25.056 3°3.686 1.3 312 10.8 100920 96
2001-11-30 10:10:09 51°25.076 3°3.703 1.6 282 10.8 100920 96
2001-11-30 10:10:14 51°25.093 3°3.717 2.5 246 10.8 100930 96
2001-11-30 10:10:19 51°25.11 3°3.731 1.3 277 10.8 100930 96
2001-11-30 10:10:24 51°25.127 3°3.746 2.4 287 10.8 100930 96
2001-11-30 10:10:29 51°25.144 3°3.759 1.4 231 10.8 100930 96
2001-11-30 10:10:33 51°25.158 3°3.77 1.7 285 10.8 100930 96
2001-11-30 10:10:39 51°25.179 3°3.787 1.5 19 10.8 100930 96
2001-11-30 10:10:43 51°25.192 3°3.798 1 25 10.8 100930 96
2001-11-30 10:10:48 51°25.209 3°3.812 1.7 238 10.8 100930 96
2001-11-30 10:10:54 51°25.229 3°3.829 1.6 249 10.8 100930 96
2001-11-30 10:10:59 51°25.246 3°3.843 2.1 253 10.8 100930 96
2001-11-30 10:11:03 51°25.26 3°3.854 1.5 262 10.8 100930 96
2001-11-30 10:11:08 51°25.277 3°3.868 1.3 16 10.8 100930 96
2001-11-30 10:11:13 51°25.294 3°3.88 1.2 336 10.8 100930 96
2001-11-30 10:11:18 51°25.311 3°3.895 1.8 100 10.8 100930 96
2001-11-30 10:11:23 51°25.328 3°3.907 1.5 212 10.8 100930 96
2001-11-30 10:11:28 51°25.344 3°3.922 1.5 227 10.8 100930 96
2001-11-30 10:11:34 51°25.366 3°3.936 1.7 299 10.8 100930 96
2001-11-30 10:11:39 51°25.382 3°3.95 1.3 212 10.8 100930 96
2001-11-30 10:11:43 51°25.397 3°3.958 1.7 334 10.8 100920 96
2001-11-30 10:11:49 51°25.417 3°3.975 1.9 101 10.8 100920 96
2001-11-30 10:11:54 51°25.435 3°3.986 1.8 355 10.8 100930 96
2001-11-30 10:11:59 51°25.451 3°4.001 0.9 245 10.8 100930 96
2001-11-30 10:12:03 51°25.466 3°4.009 1.5 220 10.8 100930 96
2001-11-30 10:12:09 51°25.485 3°4.026 1.4 232 10.8 100930 96
2001-11-30 10:12:14 51°25.503 3°4.037 1.7 16 10.8 100920 96
2001-11-30 10:12:19 51°25.519 3°4.051 1.5 6 10.8 100920 96
2001-11-30 10:12:23 51°25.533 3°4.059 1.1 39 10.8 100930 96
2001-11-30 10:12:29 51°25.553 3°4.077 1.1 357 10.8 100930 96
2001-11-30 10:12:34 51°25.571 3°4.087 1.7 231 10.8 100930 96
2001-11-30 10:12:39 51°25.587 3°4.103 1.7 233 10.8 100930 96
2001-11-30 10:12:43 51°25.602 3°4.11 1.8 286 10.8 100930 96
2001-11-30 10:12:49 51°25.622 3°4.127 1.4 240 10.8 100930 96
2001-11-30 10:12:53 51°25.636 3°4.135 1.9 341 10.8 100930 96
2001-11-30 10:12:58 51°25.653 3°4.149 2.2 342 10.8 100930 96
2001-11-30 10:13:03 51°25.67 3°4.161 1.6 235 10.8 100930 96
2001-11-30 10:13:09 51°25.691 3°4.178 0.8 247 10.8 100930 96
2001-11-30 10:13:14 51°25.707 3°4.19 2.7 73 10.8 100930 96
2001-11-30 10:13:18 51°25.72 3°4.203 1.1 228 10.8 100930 96
2001-11-30 10:13:23 51°25.737 3°4.215 1.2 244 10.8 100930 96
2001-11-30 10:13:29 51°25.757 3°4.234 1 242 10.8 100930 96
2001-11-30 10:13:34 51°25.775 3°4.245 1.4 230 10.8 100930 96
2001-11-30 10:13:39 51°25.791 3°4.262 1.1 236 10.8 100930 96
2001-11-30 10:13:44 51°25.808 3°4.274 1.2 249 10.8 100930 96
2001-11-30 10:13:49 51°25.824 3°4.29 1.5 168 10.8 100930 96
2001-11-30 10:13:53 51°25.838 3°4.299 2 280 10.8 100930 96
2001-11-30 10:13:59 51°25.857 3°4.318 0.8 265 10.8 100930 96
2001-11-30 10:14:03 51°25.871 3°4.327 2 217 10.8 100930 96
2001-11-30 10:14:08 51°25.888 3°4.341 1.2 241 10.8 100930 96
2001-11-30 10:14:14 51°25.908 3°4.357 1 320 10.8 100930 96
2001-11-30 10:14:19 51°25.924 3°4.372 1.2 211 10.8 100930 96
2001-11-30 10:14:24 51°25.941 3°4.385 1.2 69 10.8 100930 96
2001-11-30 10:14:29 51°25.957 3°4.402 1.2 271 10.8 100930 96
2001-11-30 10:14:34 51°25.974 3°4.415 0.8 320 10.9 100930 96
2001-11-30 10:14:39 51°25.99 3°4.43 1.2 23 10.9 100930 96
2001-11-30 10:14:43 51°26.004 3°4.44 1 240 10.8 100930 96
2001-11-30 10:14:48 51°26.021 3°4.452 1.8 332 10.8 100930 96
2001-11-30 10:14:52 51°26.034 3°4.462 1.7 175 10.8 100930 96
2001-11-30 10:14:59 51°26.058 3°4.481 1.8 133 10.8 100930 96
2001-11-30 10:15:03 51°26.071 3°4.492 1.7 18 10.9 100940 96
2001-11-30 10:15:08 51°26.087 3°4.508 0.7 15 10.9 100940 96
2001-11-30 10:15:11 51°26.097 3°4.518 0.8 220 10.9 100930 96
2001-11-30 10:15:19 51°26.121 3°4.546 0.7 125 10.9 100930 96
2001-11-30 10:15:24 51°26.136 3°4.566 0.4 102 10.8 100930 96
2001-11-30 10:15:29 51°26.149 3°4.587 0.3 125 10.8 100930 96
2001-11-30 10:15:31 51°26.154 3°4.596 0.4 124 10.8 100930 96
2001-11-30 10:15:39 51°26.172 3°4.635 0.9 191 10.8 100930 96
2001-11-30 10:15:43 51°26.179 3°4.657 0.6 198 10.8 100930 96
2001-11-30 10:15:48 51°26.185 3°4.685 2.2 276 10.8 100930 96
2001-11-30 10:15:53 51°26.189 3°4.714 3.2 289 10.8 100930 96
2001-11-30 10:15:59 51°26.19 3°4.75 4.6 269 10.8 100930 96
2001-11-30 10:16:03 51°26.189 3°4.773 5.6 262 10.8 100930 96
2001-11-30 10:16:08 51°26.185 3°4.803 5.5 266 10.8 100930 96
2001-11-30 10:16:14 51°26.18 3°4.838 5.8 272 10.8 100930 96
2001-11-30 10:16:19 51°26.175 3°4.868 4.3 280 10.8 100930 96
2001-11-30 10:16:23 51°26.17 3°4.892 4.3 293 10.9 100930 96
2001-11-30 10:16:29 51°26.164 3°4.928 5.6 273 10.9 100930 96
2001-11-30 10:16:34 51°26.158 3°4.958 4.9 297 10.9 100920 96
2001-11-30 10:16:39 51°26.15 3°4.987 6.1 284 10.9 100920 96
2001-11-30 10:16:43 51°26.143 3°5.01 4.9 277 10.9 100920 96
2001-11-30 10:16:49 51°26.133 3°5.044 5.7 288 10.9 100920 96
2001-11-30 10:16:54 51°26.125 3°5.073 5.6 280 10.9 100920 96
2001-11-30 10:16:59 51°26.116 3°5.102 6 285 10.9 100920 96
2001-11-30 10:17:03 51°26.11 3°5.125 5.9 294 10.9 100920 96
2001-11-30 10:17:09 51°26.1 3°5.16 5.5 279 10.9 100920 96
2001-11-30 10:17:14 51°26.092 3°5.19 6 277 10.9 100920 96
2001-11-30 10:17:19 51°26.084 3°5.219 5.2 281 10.9 100920 96
2001-11-30 10:17:23 51°26.077 3°5.242 5.2 282 10.9 100910 96
2001-11-30 10:17:29 51°26.067 3°5.277 5 287 10.9 100910 96
2001-11-30 10:17:34 51°26.058 3°5.307 6.5 290 10.9 100910 96
2001-11-30 10:17:39 51°26.05 3°5.336 5.3 278 10.9 100910 96
2001-11-30 10:17:43 51°26.044 3°5.359 6.3 293 10.8 100920 96
2001-11-30 10:17:49 51°26.033 3°5.394 5.8 298 10.8 100920 96
2001-11-30 10:17:54 51°26.025 3°5.424 5.8 288 10.9 100910 96
2001-11-30 10:17:59 51°26.016 3°5.453 5.6 286 10.9 100910 96
2001-11-30 10:18:04 51°26.008 3°5.483 5.7 288 10.8 100920 96
2001-11-30 10:18:09 51°26 3°5.512 5.3 290 10.8 100920 96
2001-11-30 10:18:14 51°25.991 3°5.542 5.8 292 10.8 100910 96
2001-11-30 10:18:19 51°25.983 3°5.571 5.9 294 10.8 100910 96
2001-11-30 10:18:24 51°25.974 3°5.601 5.9 288 10.8 100920 96
2001-11-30 10:18:29 51°25.966 3°5.631 5.7 292 10.8 100920 96
2001-11-30 10:18:34 51°25.957 3°5.66 5.3 281 10.8 100910 96
2001-11-30 10:18:39 51°25.949 3°5.69 5.5 291 10.8 100910 96
2001-11-30 10:18:43 51°25.942 3°5.713 5.4 285 10.8 100920 96
2001-11-30 10:18:49 51°25.933 3°5.749 5.2 288 10.8 100920 96
2001-11-30 10:18:54 51°25.924 3°5.778 5.4 285 10.8 100910 96
2001-11-30 10:18:59 51°25.916 3°5.808 5.5 279 10.8 100910 96
2001-11-30 10:19:03 51°25.91 3°5.832 6 284 10.8 100920 96
2001-11-30 10:19:09 51°25.9 3°5.867 5.8 282 10.8 100920 96
2001-11-30 10:19:14 51°25.892 3°5.897 5.3 297 10.8 100920 96
2001-11-30 10:19:19 51°25.883 3°5.926 5.8 292 10.8 100920 96
2001-11-30 10:19:24 51°25.875 3°5.955 6.2 276 10.8 100910 96
2001-11-30 10:19:29 51°25.867 3°5.985 6.1 302 10.8 100910 96
2001-11-30 10:19:34 51°25.859 3°6.015 6.4 289 10.8 100910 96
2001-11-30 10:19:39 51°25.851 3°6.045 5.5 284 10.8 100910 96
2001-11-30 10:19:44 51°25.841 3°6.073 7.6 297 10.8 100920 96
2001-11-30 10:19:47 51°25.836 3°6.09 7.3 289 10.8 100920 96
2001-11-30 10:19:53 51°25.824 3°6.125 6.5 298 10.8 100920 96
2001-11-30 10:19:59 51°25.811 3°6.158 6.8 287 10.8 100920 96
2001-11-30 10:20:03 51°25.802 3°6.179 7.2 288 10.8 100920 96
2001-11-30 10:20:09 51°25.789 3°6.212 7.7 291 10.8 100920 96
2001-11-30 10:20:14 51°25.777 3°6.239 6.2 285 10.8 100920 96
2001-11-30 10:20:19 51°25.766 3°6.266 6.8 297 10.8 100920 96
2001-11-30 10:20:23 51°25.756 3°6.287 7.5 294 10.7 100910 96
2001-11-30 10:20:29 51°25.743 3°6.319 8.3 302 10.7 100910 96
2001-11-30 10:20:34 51°25.731 3°6.346 7.8 297 10.7 100920 96
2001-11-30 10:20:39 51°25.72 3°6.373 8.3 287 10.7 100920 96
2001-11-30 10:20:44 51°25.708 3°6.401 7.5 292 10.8 100910 96
2001-11-30 10:20:47 51°25.702 3°6.417 7.4 290 10.8 100910 96
2001-11-30 10:20:54 51°25.686 3°6.455 9.1 288 10.7 100920 96
2001-11-30 10:20:59 51°25.675 3°6.482 7.4 301 10.7 100920 96
2001-11-30 10:21:03 51°25.666 3°6.504 7.6 294 10.8 100910 96
2001-11-30 10:21:09 51°25.653 3°6.538 7.2 296 10.8 100910 96
2001-11-30 10:21:14 51°25.642 3°6.565 7.4 290 10.8 100910 96
2001-11-30 10:21:19 51°25.632 3°6.593 7.3 290 10.8 100910 96
2001-11-30 10:21:24 51°25.621 3°6.621 7.5 299 10.7 100910 96
2001-11-30 10:21:27 51°25.614 3°6.637 7.3 301 10.7 100910 96
2001-11-30 10:21:34 51°25.599 3°6.676 6.6 282 10.7 100910 96
2001-11-30 10:21:39 51°25.588 3°6.704 7.2 295 10.7 100910 96
2001-11-30 10:21:44 51°25.577 3°6.731 7 284 10.7 100920 96
2001-11-30 10:21:49 51°25.566 3°6.759 7.3 297 10.7 100920 96
2001-11-30 10:21:54 51°25.555 3°6.786 7.4 291 10.7 100910 96
2001-11-30 10:21:59 51°25.544 3°6.813 8.1 298 10.7 100910 96
2001-11-30 10:22:03 51°25.535 3°6.835 7 294 10.8 100910 96
2001-11-30 10:22:09 51°25.521 3°6.868 6.9 289 10.8 100910 96
2001-11-30 10:22:14 51°25.509 3°6.895 6.7 286 10.7 100910 96
2001-11-30 10:22:19 51°25.498 3°6.922 7.2 300 10.7 100910 96
2001-11-30 10:22:24 51°25.487 3°6.949 6.7 295 10.8 100910 96
2001-11-30 10:22:27 51°25.48 3°6.966 7.6 286 10.8 100910 96
2001-11-30 10:22:34 51°25.465 3°7.004 7.4 298 10.8 100920 96
2001-11-30 10:22:39 51°25.453 3°7.031 8 293 10.8 100920 96
2001-11-30 10:22:43 51°25.444 3°7.053 7.9 281 10.8 100910 96
2001-11-30 10:22:49 51°25.43 3°7.086 6.9 300 10.8 100910 96
2001-11-30 10:22:54 51°25.419 3°7.113 6.9 284 10.8 100910 96
2001-11-30 10:22:59 51°25.407 3°7.14 7.7 295 10.8 100910 96
2001-11-30 10:23:04 51°25.396 3°7.167 7.5 286 10.8 100910 96
2001-11-30 10:23:09 51°25.384 3°7.194 7.2 290 10.8 100910 96
2001-11-30 10:23:14 51°25.373 3°7.221 7.7 289 10.8 100910 96
2001-11-30 10:23:19 51°25.362 3°7.249 7.2 295 10.8 100910 96
2001-11-30 10:23:23 51°25.353 3°7.271 7.7 299 10.8 100910 96
2001-11-30 10:23:29 51°25.34 3°7.304 7 285 10.8 100910 96
2001-11-30 10:23:34 51°25.328 3°7.331 6.9 293 10.8 100910 96
2001-11-30 10:23:39 51°25.317 3°7.358 6.7 288 10.8 100910 96
2001-11-30 10:23:43 51°25.308 3°7.38 7.7 300 10.8 100910 96
2001-11-30 10:23:49 51°25.294 3°7.412 8.1 294 10.8 100910 96
2001-11-30 10:23:54 51°25.283 3°7.439 7.5 289 10.8 100910 96
2001-11-30 10:23:59 51°25.272 3°7.467 6.1 290 10.8 100910 96
2001-11-30 10:24:03 51°25.262 3°7.489 5.8 281 10.8 100910 96
2001-11-30 10:24:09 51°25.249 3°7.522 7.4 290 10.8 100910 96
2001-11-30 10:24:14 51°25.238 3°7.549 7.7 294 10.8 100920 96
2001-11-30 10:24:19 51°25.227 3°7.577 6.6 300 10.8 100920 96
2001-11-30 10:24:24 51°25.216 3°7.604 7.2 287 10.8 100920 96
2001-11-30 10:24:29 51°25.204 3°7.631 6 288 10.8 100920 96
2001-11-30 10:24:34 51°25.193 3°7.658 7.5 289 10.8 100910 96
2001-11-30 10:24:39 51°25.182 3°7.686 7.8 297 10.8 100910 96
2001-11-30 10:24:43 51°25.173 3°7.708 7 290 10.8 100920 96
2001-11-30 10:24:49 51°25.159 3°7.741 7 279 10.8 100920 96
2001-11-30 10:24:54 51°25.149 3°7.769 6.1 283 10.8 100920 96
2001-11-30 10:24:59 51°25.137 3°7.796 5.8 281 10.8 100920 96
2001-11-30 10:25:04 51°25.127 3°7.824 3.3 277 10.8 100920 96
2001-11-30 10:25:09 51°25.116 3°7.852 6 286 10.8 100920 96
2001-11-30 10:25:14 51°25.106 3°7.88 5.9 284 10.8 100910 96
2001-11-30 10:25:19 51°25.095 3°7.908 6.4 284 10.8 100910 96
2001-11-30 10:25:23 51°25.087 3°7.931 6.6 281 10.8 100920 96
2001-11-30 10:25:29 51°25.074 3°7.965 5.8 279 10.8 100920 96
2001-11-30 10:25:34 51°25.063 3°7.993 6.9 289 10.8 100920 96
2001-11-30 10:25:39 51°25.053 3°8.021 6.3 287 10.8 100920 96
2001-11-30 10:25:43 51°25.044 3°8.044 6.4 286 10.8 100910 96
2001-11-30 10:25:49 51°25.032 3°8.078 7.2 283 10.8 100910 96
2001-11-30 10:25:54 51°25.021 3°8.106 7.6 285 10.8 100920 96
2001-11-30 10:25:59 51°25.011 3°8.135 5.5 284 10.8 100920 96
2001-11-30 10:26:04 51°24.999 3°8.163 7 290 10.8 100910 96
2001-11-30 10:26:09 51°24.989 3°8.192 6 277 10.8 100910 96
2001-11-30 10:26:14 51°24.978 3°8.22 6.9 284 10.8 100910 96
2001-11-30 10:26:19 51°24.968 3°8.249 6.7 284 10.8 100910 96
2001-11-30 10:26:23 51°24.959 3°8.272 6.6 287 10.8 100920 96
2001-11-30 10:26:27 51°24.95 3°8.295 7.5 292 10.8 100920 96
2001-11-30 10:26:34 51°24.935 3°8.335 7 282 10.8 100920 96
2001-11-30 10:26:39 51°24.925 3°8.364 7.9 282 10.8 100920 96
2001-11-30 10:26:44 51°24.914 3°8.393 7.3 285 10.8 100920 96
2001-11-30 10:26:49 51°24.904 3°8.421 6.8 297 10.8 100920 96
2001-11-30 10:26:54 51°24.893 3°8.45 6.7 284 10.8 100920 96
2001-11-30 10:26:59 51°24.882 3°8.48 5.9 281 10.8 100920 96
2001-11-30 10:27:03 51°24.874 3°8.503 6.7 289 10.8 100910 96
2001-11-30 10:27:09 51°24.862 3°8.538 6.8 282 10.8 100910 96
2001-11-30 10:27:14 51°24.851 3°8.566 7.2 284 10.8 100920 96
2001-11-30 10:27:19 51°24.841 3°8.596 6.8 290 10.8 100920 96
2001-11-30 10:27:24 51°24.831 3°8.625 6.1 279 10.8 100920 96
2001-11-30 10:27:29 51°24.82 3°8.654 6.7 280 10.8 100920 96
2001-11-30 10:27:34 51°24.811 3°8.684 7 282 10.8 100920 96
2001-11-30 10:27:39 51°24.801 3°8.713 6.5 283 10.8 100920 96
2001-11-30 10:27:44 51°24.792 3°8.743 6.5 288 10.8 100920 96
2001-11-30 10:27:47 51°24.786 3°8.761 6.2 283 10.8 100920 96
2001-11-30 10:27:54 51°24.772 3°8.802 6.4 281 10.8 100920 96
2001-11-30 10:27:59 51°24.762 3°8.832 6.8 285 10.8 100920 96
2001-11-30 10:28:03 51°24.754 3°8.855 6.8 279 10.8 100920 96
2001-11-30 10:28:09 51°24.742 3°8.891 6.3 282 10.8 100920 96
2001-11-30 10:28:14 51°24.732 3°8.919 6.5 287 10.8 100920 96
2001-11-30 10:28:19 51°24.723 3°8.949 6.5 278 10.8 100920 96
2001-11-30 10:28:23 51°24.714 3°8.973 7.5 291 10.8 100920 96
2001-11-30 10:28:29 51°24.702 3°9.009 6.3 278 10.8 100920 96
2001-11-30 10:28:34 51°24.692 3°9.038 6.8 291 10.8 100920 96
2001-11-30 10:28:39 51°24.682 3°9.068 5 284 10.8 100920 96
2001-11-30 10:28:44 51°24.672 3°9.097 7.2 282 10.8 100920 96
2001-11-30 10:28:47 51°24.666 3°9.115 7.2 292 10.8 100920 96
2001-11-30 10:28:54 51°24.653 3°9.157 6.7 285 10.8 100920 96
2001-11-30 10:28:59 51°24.642 3°9.187 7.4 290 10.8 100920 96
2001-11-30 10:29:04 51°24.633 3°9.217 7.8 287 10.8 100920 96
2001-11-30 10:29:09 51°24.623 3°9.246 6.5 296 10.8 100920 96
2001-11-30 10:29:14 51°24.614 3°9.277 7.2 284 10.8 100920 96
2001-11-30 10:29:19 51°24.603 3°9.307 7.3 294 10.8 100920 96
2001-11-30 10:29:24 51°24.594 3°9.336 7.6 296 10.8 100920 96
2001-11-30 10:29:27 51°24.588 3°9.354 6.6 289 10.8 100920 96
2001-11-30 10:29:34 51°24.577 3°9.397 5.4 283 10.8 100920 96
2001-11-30 10:29:39 51°24.57 3°9.429 5 276 10.8 100920 96
2001-11-30 10:29:44 51°24.564 3°9.462 5.7 273 10.8 100910 96
2001-11-30 10:29:49 51°24.561 3°9.494 4.7 271 10.8 100910 96
2001-11-30 10:29:54 51°24.558 3°9.528 4.4 268 10.8 100920 96
2001-11-30 10:29:59 51°24.558 3°9.561 4.6 266 10.8 100920 96
2001-11-30 10:30:03 51°24.558 3°9.588 3.9 267 10.8 100910 96
2001-11-30 10:30:09 51°24.56 3°9.628 4 261 10.8 100910 96
2001-11-30 10:30:14 51°24.562 3°9.661 2.9 287 10.8 100920 96
2001-11-30 10:30:19 51°24.564 3°9.695 4.2 270 10.8 100920 96
2001-11-30 10:30:24 51°24.564 3°9.729 3.5 278 10.7 100930 96
2001-11-30 10:30:29 51°24.566 3°9.762 4.3 269 10.7 100930 96
2001-11-30 10:30:34 51°24.567 3°9.796 3.6 294 10.7 100930 96
2001-11-30 10:30:39 51°24.568 3°9.83 3.7 284 10.7 100930 96
2001-11-30 10:30:44 51°24.57 3°9.864 4 273 10.7 100930 96
2001-11-30 10:30:47 51°24.571 3°9.885 3.4 265 10.7 100930 96
2001-11-30 10:30:53 51°24.573 3°9.925 3.8 260 10.7 100930 96
2001-11-30 10:30:59 51°24.576 3°9.966 3.3 275 10.7 100930 96
2001-11-30 10:31:03 51°24.577 3°9.993 3.5 272 10.7 100930 96
2001-11-30 10:31:09 51°24.58 3°10.034 3.3 258 10.7 100930 96
2001-11-30 10:31:14 51°24.583 3°10.068 3.2 295 10.7 100930 96
2001-11-30 10:31:19 51°24.586 3°10.101 3.3 269 10.7 100930 96
2001-11-30 10:31:23 51°24.589 3°10.128 3.2 266 10.7 100930 96
2001-11-30 10:31:29 51°24.593 3°10.168 3.7 267 10.7 100930 96
2001-11-30 10:31:34 51°24.596 3°10.202 2.9 289 10.7 100930 96
2001-11-30 10:31:39 51°24.599 3°10.236 2.8 288 10.7 100930 96
2001-11-30 10:31:44 51°24.604 3°10.269 2.5 271 10.7 100930 96
2001-11-30 10:31:47 51°24.607 3°10.288 2.3 271 10.7 100930 96
2001-11-30 10:31:54 51°24.616 3°10.333 1.9 270 10.7 100930 96
2001-11-30 10:31:59 51°24.623 3°10.364 1.8 270 10.7 100930 96
2001-11-30 10:32:04 51°24.63 3°10.396 2 291 10.7 100930 96
2001-11-30 10:32:09 51°24.638 3°10.427 1.8 277 10.7 100930 96
2001-11-30 10:32:14 51°24.646 3°10.458 1.7 264 10.7 100930 96
2001-11-30 10:32:19 51°24.654 3°10.49 1.7 277 10.7 100930 96
2001-11-30 10:32:23 51°24.661 3°10.514 1.2 284 10.7 100930 96
2001-11-30 10:32:29 51°24.672 3°10.551 1.1 268 10.7 100930 96
2001-11-30 10:32:33 51°24.679 3°10.574 0.6 269 10.7 100930 96
2001-11-30 10:32:39 51°24.692 3°10.609 0.4 264 10.7 100930 96
2001-11-30 10:32:43 51°24.7 3°10.632 0.4 262 10.7 100930 96
2001-11-30 10:32:49 51°24.714 3°10.666 0.1 262 10.7 100930 96
2001-11-30 10:32:54 51°24.725 3°10.694 0.1 261 10.7 100930 96
2001-11-30 10:32:59 51°24.737 3°10.722 0.1 249 10.7 100930 96
2001-11-30 10:33:04 51°24.749 3°10.749 0.1 234 10.7 100930 96
2001-11-30 10:33:07 51°24.756 3°10.764   231 10.7 100930 96
2001-11-30 10:33:14 51°24.775 3°10.801 1.1 282 10.7 100940 96
2001-11-30 10:33:19 51°24.788 3°10.825 0.9 316 10.7 100940 96
2001-11-30 10:33:24 51°24.802 3°10.85 0.6 39 10.7 100930 96
2001-11-30 10:33:29 51°24.817 3°10.872 0.4 43 10.7 100930 96
2001-11-30 10:33:34 51°24.832 3°10.895 0.2 60 10.7 100930 96
2001-11-30 10:33:39 51°24.847 3°10.918 0.8 81 10.7 100930 96
2001-11-30 10:33:43 51°24.859 3°10.934 1 57 10.7 100930 96
2001-11-30 10:33:49 51°24.878 3°10.957 1.3 227 10.7 100930 96
2001-11-30 10:33:54 51°24.895 3°10.97 2.9 23 10.7 100940 96
2001-11-30 10:33:59 51°24.913 3°10.98 3.6 178 10.7 100940 96
2001-11-30 10:34:04 51°24.93 3°10.985 5.3 138 10.7 100930 96
2001-11-30 10:34:09 51°24.948 3°10.986 6.5 324 10.7 100930 96
2001-11-30 10:34:14 51°24.965 3°10.983 7.1 34 10.7 100930 96
2001-11-30 10:34:19 51°24.981 3°10.977 7.1 39 10.7 100930 96
2001-11-30 10:34:23 51°24.993 3°10.97 8.1 43 10.7 100920 96
2001-11-30 10:34:27 51°25.004 3°10.96 7.4 320 10.7 100920 96
2001-11-30 10:34:33 51°25.021 3°10.946 7.7 48 10.7 100920 96
2001-11-30 10:34:39 51°25.037 3°10.928 10 126 10.7 100920 96
2001-11-30 10:34:43 51°25.047 3°10.915 10.1 134 10.7 100910 96
2001-11-30 10:34:49 51°25.061 3°10.894 12.6 41 10.7 100910 96
2001-11-30 10:34:54 51°25.072 3°10.875 12.2 44 10.7 100900 96
2001-11-30 10:34:59 51°25.083 3°10.854 13.1 31 10.7 100900 96
2001-11-30 10:35:03 51°25.09 3°10.838 15.6 38 10.7 100900 96
2001-11-30 10:35:09 51°25.102 3°10.813 15.2 39 10.7 100900 96
2001-11-30 10:35:14 51°25.111 3°10.791 15.6 40 10.7 100890 96
2001-11-30 10:35:19 51°25.119 3°10.769 14.8 36 10.7 100890 96
2001-11-30 10:35:24 51°25.128 3°10.746 16.4 32 10.7 100890 96
2001-11-30 10:35:27 51°25.133 3°10.733 17.7 32 10.7 100890 96
2001-11-30 10:35:34 51°25.144 3°10.701 16.1 33 10.7 100880 96
2001-11-30 10:35:39 51°25.153 3°10.679 16.3 36 10.7 100880 96
2001-11-30 10:35:44 51°25.162 3°10.657 12.9 38 10.7 100880 96
2001-11-30 10:35:49 51°25.172 3°10.636 12.9 44 10.7 100880 96
2001-11-30 10:35:54 51°25.182 3°10.615 12.7 43 10.7 100880 96
2001-11-30 10:35:59 51°25.192 3°10.594 12.9 39 10.7 100880 96
2001-11-30 10:36:03 51°25.201 3°10.578 14.5 39 10.8 100880 96
2001-11-30 10:36:09 51°25.213 3°10.553 14 41 10.8 100880 96
2001-11-30 10:36:14 51°25.224 3°10.532 12.6 44 10.8 100880 96
2001-11-30 10:36:19 51°25.235 3°10.512 13.4 36 10.8 100880 96
2001-11-30 10:36:24 51°25.245 3°10.491 11.8 36 10.8 100890 96
2001-11-30 10:36:29 51°25.256 3°10.471 14.9 40 10.8 100890 96
2001-11-30 10:36:34 51°25.267 3°10.451 12.3 40 10.8 100880 96
2001-11-30 10:36:39 51°25.278 3°10.43 14.9 34 10.8 100880 96
2001-11-30 10:36:43 51°25.286 3°10.413 13.7 40 10.8 100880 96
2001-11-30 10:36:49 51°25.299 3°10.389 14.1 33 10.8 100880 96
2001-11-30 10:36:54 51°25.309 3°10.368 12.2 37 10.8 100890 96
2001-11-30 10:36:59 51°25.32 3°10.347 12.4 42 10.8 100890 96
2001-11-30 10:37:04 51°25.33 3°10.326 12.4 42 10.7 100890 96
2001-11-30 10:37:07 51°25.336 3°10.314 11.4 320 10.7 100890 96
2001-11-30 10:37:14 51°25.351 3°10.286 11.3 37 10.8 100890 96
2001-11-30 10:37:19 51°25.362 3°10.265 13.3 323 10.8 100890 96
2001-11-30 10:37:24 51°25.372 3°10.245 13.9 40 10.8 100890 96
2001-11-30 10:37:29 51°25.383 3°10.224 11.2 131 10.8 100890 96
2001-11-30 10:37:34 51°25.393 3°10.204 11.5 42 10.7 100880 96
2001-11-30 10:37:39 51°25.404 3°10.183 13.5 39 10.7 100880 96
2001-11-30 10:37:44 51°25.414 3°10.163 13.3 34 10.7 100890 96
2001-11-30 10:37:49 51°25.425 3°10.142 11.1 42 10.7 100890 96
2001-11-30 10:37:54 51°25.435 3°10.122 12.7 42 10.7 100890 96
2001-11-30 10:37:59 51°25.445 3°10.102 11.2 43 10.7 100890 96
2001-11-30 10:38:03 51°25.454 3°10.086 12.5 43 10.7 100880 96
2001-11-30 10:38:09 51°25.467 3°10.061 11.2 44 10.7 100880 96
2001-11-30 10:38:14 51°25.478 3°10.041 11.9 40 10.7 100880 96
2001-11-30 10:38:19 51°25.487 3°10.02 11.8 44 10.7 100880 96
2001-11-30 10:38:23 51°25.496 3°10.005 13.4 41 10.7 100880 96
2001-11-30 10:38:27 51°25.505 3°9.988 10.9 36 10.7 100880 96
2001-11-30 10:38:34 51°25.52 3°9.96 12.7 45 10.7 100880 96
2001-11-30 10:38:39 51°25.53 3°9.939 11.7 324 10.7 100880 96
2001-11-30 10:38:44 51°25.54 3°9.92 15.4 42 10.8 100880 96
2001-11-30 10:38:49 51°25.55 3°9.899 10.6 41 10.8 100880 96
2001-11-30 10:38:54 51°25.561 3°9.879 11.2 44 10.8 100880 96
2001-11-30 10:38:59 51°25.572 3°9.858 10.2 42 10.8 100880 96
2001-11-30 10:39:03 51°25.58 3°9.843 11.1 36 10.8 100880 96
2001-11-30 10:39:09 51°25.593 3°9.818 13.8 39 10.8 100880 96
2001-11-30 10:39:14 51°25.604 3°9.798 10.8 44 10.8 100880 96
2001-11-30 10:39:19 51°25.614 3°9.778 11.2 42 10.8 100880 96
2001-11-30 10:39:23 51°25.623 3°9.762 12.2 43 10.8 100890 96
2001-11-30 10:39:29 51°25.636 3°9.737 14.9 43 10.8 100890 96
2001-11-30 10:39:33 51°25.644 3°9.721 9.9 41 10.8 100890 96
2001-11-30 10:39:39 51°25.657 3°9.696 11.1 44 10.8 100890 96
2001-11-30 10:39:43 51°25.665 3°9.68 9.7 43 10.8 100890 96
2001-11-30 10:39:49 51°25.678 3°9.655 12.4 44 10.8 100890 96
2001-11-30 10:39:54 51°25.688 3°9.635 13.2 45 10.8 100890 96
2001-11-30 10:39:59 51°25.699 3°9.615 13.2 45 10.8 100890 96
2001-11-30 10:40:03 51°25.708 3°9.599 11.2 42 10.8 100880 96
2001-11-30 10:40:09 51°25.72 3°9.574 13.6 44 10.8 100880 96
2001-11-30 10:40:14 51°25.731 3°9.554 12.2 325 10.8 100880 96
2001-11-30 10:40:19 51°25.742 3°9.534 13.1 41 10.8 100880 96
2001-11-30 10:40:24 51°25.752 3°9.513 9.3 43 10.8 100880 96
2001-11-30 10:40:27 51°25.759 3°9.501 10.4 43 10.8 100880 96
2001-11-30 10:40:34 51°25.774 3°9.473 12.3 321 10.8 100890 96
2001-11-30 10:40:39 51°25.785 3°9.453 12 42 10.8 100890 96
2001-11-30 10:40:44 51°25.795 3°9.432 10.1 43 10.8 100890 96
2001-11-30 10:40:49 51°25.806 3°9.412 13.7 41 10.8 100890 96
2001-11-30 10:40:54 51°25.817 3°9.391 13.5 38 10.8 100880 96
2001-11-30 10:40:59 51°25.827 3°9.371 12.9 39 10.8 100880 96
2001-11-30 10:41:03 51°25.836 3°9.354 11.7 130 10.8 100880 96
2001-11-30 10:41:09 51°25.849 3°9.33 12.8 41 10.8 100880 96
2001-11-30 10:41:14 51°25.86 3°9.31 11.5 43 10.8 100890 96
2001-11-30 10:41:19 51°25.871 3°9.289 10.8 43 10.8 100890 96
2001-11-30 10:41:24 51°25.882 3°9.269 9.8 318 10.8 100880 96
2001-11-30 10:41:29 51°25.892 3°9.248 12.9 42 10.8 100880 96
2001-11-30 10:41:34 51°25.904 3°9.228 10.1 42 10.8 100880 96
2001-11-30 10:41:39 51°25.914 3°9.207 10.4 322 10.8 100880 96
2001-11-30 10:41:43 51°25.923 3°9.191 12.4 322 10.8 100880 96
2001-11-30 10:41:49 51°25.936 3°9.167 12.3 43 10.8 100880 96
2001-11-30 10:41:54 51°25.947 3°9.146 11.7 319 10.8 100880 96
2001-11-30 10:41:59 51°25.958 3°9.125 10.5 42 10.8 100880 96
2001-11-30 10:42:03 51°25.967 3°9.109 12 45 10.8 100880 96
2001-11-30 10:42:07 51°25.976 3°9.092 12.1 45 10.8 100880 96
2001-11-30 10:42:14 51°25.991 3°9.063 13.3 37 10.8 100880 96
2001-11-30 10:42:19 51°26.002 3°9.043 13.3 38 10.8 100880 96
2001-11-30 10:42:24 51°26.013 3°9.022 12.8 41 10.8 100880 96
2001-11-30 10:42:29 51°26.024 3°9.002 12.7 324 10.8 100880 96
2001-11-30 10:42:34 51°26.035 3°8.981 14.4 40 10.8 100880 96
2001-11-30 10:42:39 51°26.046 3°8.96 11.9 43 10.8 100880 96
2001-11-30 10:42:43 51°26.055 3°8.943 12.7 321 10.8 100880 96
2001-11-30 10:42:49 51°26.067 3°8.919 9.8 38 10.8 100880 96
2001-11-30 10:42:54 51°26.078 3°8.897 12.1 41 10.8 100880 96
2001-11-30 10:42:59 51°26.089 3°8.877 11.8 40 10.8 100880 96
2001-11-30 10:43:03 51°26.098 3°8.86 11.7 41 10.8 100880 96
2001-11-30 10:43:09 51°26.111 3°8.835 12.2 318 10.8 100880 96
2001-11-30 10:43:14 51°26.122 3°8.814 13 44 10.8 100880 96
2001-11-30 10:43:19 51°26.133 3°8.793 12 43 10.8 100880 96
2001-11-30 10:43:24 51°26.143 3°8.772 11.2 319 10.8 100880 96
2001-11-30 10:43:29 51°26.155 3°8.752 12.4 43 10.8 100880 96
2001-11-30 10:43:34 51°26.165 3°8.731 10.7 134 10.8 100880 96
2001-11-30 10:43:39 51°26.177 3°8.71 13.1 36 10.8 100880 96
2001-11-30 10:43:43 51°26.185 3°8.693 15.9 35 10.8 100880 96
2001-11-30 10:43:49 51°26.199 3°8.668 12.5 40 10.8 100880 96
2001-11-30 10:43:54 51°26.209 3°8.647 10.1 43 10.8 100870 96
2001-11-30 10:43:59 51°26.22 3°8.627 13.4 322 10.8 100870 96
2001-11-30 10:44:04 51°26.231 3°8.606 9.1 130 10.8 100880 96
2001-11-30 10:44:07 51°26.238 3°8.593 10.7 38 10.8 100880 96
2001-11-30 10:44:14 51°26.253 3°8.564 12.8 39 10.8 100880 96
2001-11-30 10:44:19 51°26.264 3°8.543 10 45 10.8 100880 96
2001-11-30 10:44:24 51°26.274 3°8.521 13.6 41 10.8 100880 96
2001-11-30 10:44:29 51°26.285 3°8.499 14 35 10.8 100880 96
2001-11-30 10:44:34 51°26.295 3°8.477 11 45 10.8 100870 96
2001-11-30 10:44:39 51°26.305 3°8.455 12.8 38 10.8 100870 96
2001-11-30 10:44:43 51°26.313 3°8.438 14.6 36 10.9 100880 96
2001-11-30 10:44:49 51°26.326 3°8.412 15.6 42 10.9 100880 96
2001-11-30 10:44:54 51°26.336 3°8.39 14.4 42 10.9 100880 96
2001-11-30 10:44:59 51°26.346 3°8.368 15.9 39 10.9 100880 96
2001-11-30 10:45:03 51°26.355 3°8.351 13.1 39 10.9 100880 96
2001-11-30 10:45:09 51°26.367 3°8.325 14.1 38 10.9 100880 96
2001-11-30 10:45:14 51°26.378 3°8.303 13.8 40 10.9 100880 96
2001-11-30 10:45:19 51°26.388 3°8.282 16 40 10.9 100880 96
2001-11-30 10:45:23 51°26.396 3°8.264 13.8 41 10.9 100880 96
2001-11-30 10:45:29 51°26.409 3°8.238 12.5 45 10.9 100880 96
2001-11-30 10:45:34 51°26.419 3°8.217 13.9 43 10.9 100870 96
2001-11-30 10:45:39 51°26.43 3°8.195 13.5 38 10.9 100870 96
2001-11-30 10:45:43 51°26.438 3°8.178 13 34 10.9 100880 96
2001-11-30 10:45:49 51°26.451 3°8.152 15 38 10.9 100880 96
2001-11-30 10:45:54 51°26.461 3°8.131 11.6 38 10.9 100880 96
2001-11-30 10:45:59 51°26.472 3°8.11 14.8 31 10.9 100880 96
2001-11-30 10:46:03 51°26.48 3°8.092 14 39 10.9 100880 96
2001-11-30 10:46:09 51°26.493 3°8.066 15.7 36 10.9 100880 96
2001-11-30 10:46:14 51°26.503 3°8.045 15.8 41 10.9 100870 96
2001-11-30 10:46:19 51°26.514 3°8.024 13.4 37 10.9 100870 96
2001-11-30 10:46:24 51°26.524 3°8.002 14.4 37 10.9 100880 96
2001-11-30 10:46:29 51°26.534 3°7.98 16 38 10.9 100880 96
2001-11-30 10:46:34 51°26.545 3°7.959 14.5 39 10.9 100880 96
2001-11-30 10:46:39 51°26.555 3°7.937 15.4 43 10.9 100880 96
2001-11-30 10:46:43 51°26.564 3°7.92 13.6 38 10.9 100880 96
2001-11-30 10:46:49 51°26.576 3°7.894 12.6 40 10.9 100880 96
2001-11-30 10:46:54 51°26.587 3°7.873 13.2 326 10.9 100880 96
2001-11-30 10:46:59 51°26.597 3°7.851 14.5 44 10.9 100880 96
2001-11-30 10:47:04 51°26.608 3°7.83 14.7 36 10.9 100880 96
2001-11-30 10:47:07 51°26.614 3°7.817 12.7 40 10.9 100880 96
2001-11-30 10:47:14 51°26.629 3°7.787 13.8 41 10.9 100870 96
2001-11-30 10:47:19 51°26.639 3°7.765 12.3 38 10.9 100870 96
2001-11-30 10:47:24 51°26.649 3°7.744 14 39 10.9 100880 96
2001-11-30 10:47:29 51°26.66 3°7.722 13 41 10.9 100880 96
2001-11-30 10:47:34 51°26.67 3°7.701 13.9 33 10.9 100880 96
2001-11-30 10:47:39 51°26.681 3°7.68 15.7 34 10.9 100880 96
2001-11-30 10:47:43 51°26.689 3°7.663 14.9 43 10.9 100880 96
2001-11-30 10:47:49 51°26.702 3°7.637 14.7 37 10.9 100880 96
2001-11-30 10:47:54 51°26.712 3°7.616 13.8 42 10.9 100880 96
2001-11-30 10:47:59 51°26.723 3°7.594 14.4 38 10.9 100880 96
2001-11-30 10:48:03 51°26.731 3°7.577 13.6 38 10.9 100880 96
2001-11-30 10:48:09 51°26.744 3°7.551 12 320 10.9 100880 96
2001-11-30 10:48:14 51°26.755 3°7.53 14.6 39 10.9 100880 96
2001-11-30 10:48:19 51°26.766 3°7.508 13.7 43 10.9 100880 96
2001-11-30 10:48:24 51°26.776 3°7.487 15.7 39 10.9 100880 96
2001-11-30 10:48:29 51°26.787 3°7.465 14.3 37 10.9 100880 96
2001-11-30 10:48:34 51°26.797 3°7.443 13.3 36 10.9 100880 96
2001-11-30 10:48:39 51°26.808 3°7.422 13.3 43 10.9 100880 96
2001-11-30 10:48:44 51°26.818 3°7.4 16.3 33 10.9 100880 96
2001-11-30 10:48:49 51°26.829 3°7.379 15.4 36 10.9 100880 96
2001-11-30 10:48:54 51°26.839 3°7.357 12.8 39 10.9 100870 96
2001-11-30 10:48:59 51°26.85 3°7.335 14.8 41 10.9 100870 96
2001-11-30 10:49:04 51°26.86 3°7.313 15.1 37 10.9 100880 96
2001-11-30 10:49:07 51°26.866 3°7.3 14.5 38 10.9 100880 96
2001-11-30 10:49:14 51°26.881 3°7.269 17.1 31 11 100870 96
2001-11-30 10:49:19 51°26.891 3°7.247 14 319 11 100870 96
2001-11-30 10:49:24 51°26.901 3°7.226 12.4 44 11 100880 96
2001-11-30 10:49:29 51°26.912 3°7.204 13.2 41 11 100880 96
2001-11-30 10:49:34 51°26.922 3°7.182 14.5 40 11 100880 96
2001-11-30 10:49:39 51°26.933 3°7.16 12.5 40 11 100880 96
2001-11-30 10:49:43 51°26.941 3°7.142 12.8 41 10.9 100870 96
2001-11-30 10:49:49 51°26.953 3°7.116 13.2 44 10.9 100870 96
2001-11-30 10:49:54 51°26.963 3°7.094 14.7 41 11 100870 96
2001-11-30 10:49:59 51°26.974 3°7.072 14 44 11 100870 96
2001-11-30 10:50:03 51°26.982 3°7.055 15.1 39 10.9 100870 96
2001-11-30 10:50:09 51°26.995 3°7.029 11.2 40 10.9 100870 96
2001-11-30 10:50:14 51°27.005 3°7.007 16 34 11 100880 96
2001-11-30 10:50:19 51°27.016 3°6.985 15.7 37 11 100880 96
2001-11-30 10:50:24 51°27.026 3°6.964 12.1 42 11 100870 96
2001-11-30 10:50:29 51°27.037 3°6.942 12.3 45 11 100870 96
2001-11-30 10:50:34 51°27.047 3°6.92 13.4 40 11 100870 96
2001-11-30 10:50:39 51°27.058 3°6.899 10.9 41 11 100870 96
2001-11-30 10:50:43 51°27.066 3°6.881 13.5 39 11 100870 96
2001-11-30 10:50:49 51°27.079 3°6.855 17 38 11 100870 96
2001-11-30 10:50:54 51°27.089 3°6.833 13 44 11 100870 96
2001-11-30 10:50:59 51°27.1 3°6.812 13.1 40 11 100870 96
2001-11-30 10:51:04 51°27.11 3°6.79 14.4 41 11 100870 96
2001-11-30 10:51:09 51°27.12 3°6.768 10.9 42 11 100870 96
2001-11-30 10:51:14 51°27.13 3°6.746 11.4 44 11 100870 96
2001-11-30 10:51:19 51°27.141 3°6.725 15.5 43 11 100870 96
2001-11-30 10:51:24 51°27.151 3°6.703 13.1 40 11 100860 96
2001-11-30 10:51:27 51°27.158 3°6.69 12.2 41 11 100860 96
2001-11-30 10:51:34 51°27.172 3°6.659 13.1 39 11 100870 96
2001-11-30 10:51:39 51°27.183 3°6.637 11.5 42 11 100870 96
2001-11-30 10:51:43 51°27.191 3°6.62 13.6 36 11 100870 96
2001-11-30 10:51:49 51°27.204 3°6.594 14.5 36 11 100870 96
2001-11-30 10:51:54 51°27.214 3°6.572 13.3 42 11 100870 96
2001-11-30 10:51:59 51°27.224 3°6.549 12.3 43 11 100870 96
2001-11-30 10:52:03 51°27.233 3°6.532 14.7 39 11 100870 96
2001-11-30 10:52:09 51°27.245 3°6.505 14.7 33 11 100870 96
2001-11-30 10:52:14 51°27.256 3°6.483 11.5 322 11 100870 96
2001-11-30 10:52:19 51°27.267 3°6.461 14.2 39 11 100870 96
2001-11-30 10:52:23 51°27.275 3°6.444 13.3 44 11 100870 96
2001-11-30 10:52:29 51°27.288 3°6.417 13.3 38 11 100870 96
2001-11-30 10:52:34 51°27.298 3°6.396 10.2 47 11 100880 96
2001-11-30 10:52:39 51°27.309 3°6.374 12.8 42 11 100880 96
2001-11-30 10:52:44 51°27.32 3°6.352 12.8 40 11 100870 96
2001-11-30 10:52:49 51°27.33 3°6.33 15.4 43 11 100870 96
2001-11-30 10:52:54 51°27.341 3°6.308 14.6 35 10.9 100870 96
2001-11-30 10:52:59 51°27.351 3°6.286 15.9 37 10.9 100870 96
2001-11-30 10:53:03 51°27.36 3°6.269 15 39 11 100870 96
2001-11-30 10:53:09 51°27.372 3°6.242 12.6 45 11 100870 96
2001-11-30 10:53:14 51°27.382 3°6.22 13.7 37 11 100870 96
2001-11-30 10:53:19 51°27.392 3°6.198 17.1 36 11 100870 96
2001-11-30 10:53:24 51°27.402 3°6.175 16.5 39 11 100870 96
2001-11-30 10:53:27 51°27.408 3°6.162 9.5 39 11 100870 96
2001-11-30 10:53:34 51°27.425 3°6.134 9.9 46 11 100870 96
2001-11-30 10:53:39 51°27.438 3°6.117 7.7 131 11 100870 96
2001-11-30 10:53:44 51°27.453 3°6.104 6.5 37 11 100870 96
2001-11-30 10:53:49 51°27.47 3°6.094 6.6 359 11 100870 96
2001-11-30 10:53:54 51°27.486 3°6.087 6.2 272 11 100860 96
2001-11-30 10:53:59 51°27.504 3°6.083 4.4 87 11 100860 96
2001-11-30 10:54:03 51°27.518 3°6.083 2.8 27 11 100870 96
2001-11-30 10:54:09 51°27.54 3°6.086 5.4 353 11 100870 96
2001-11-30 10:54:14 51°27.558 3°6.087 3.3 99 11 100880 96
2001-11-30 10:54:19 51°27.577 3°6.089 5.3 292 11 100880 96
2001-11-30 10:54:24 51°27.595 3°6.09 6.6 291 11 100890 96
2001-11-30 10:54:29 51°27.614 3°6.089 7.8 353 11 100890 96
2001-11-30 10:54:34 51°27.632 3°6.087 6.9 338 11 100900 96
2001-11-30 10:54:39 51°27.651 3°6.084 6.3 297 11 100900 96
2001-11-30 10:54:43 51°27.666 3°6.083 6.6 347 11 100900 96
2001-11-30 10:54:49 51°27.688 3°6.08 7 324 11 100900 96
2001-11-30 10:54:54 51°27.707 3°6.076 6.7 280 11 100890 96
2001-11-30 10:54:59 51°27.725 3°6.071 7.5 43 11 100890 96
2001-11-30 10:55:04 51°27.744 3°6.066 8.5 19 11 100890 96
2001-11-30 10:55:07 51°27.755 3°6.063 8.6 22 11 100890 96
2001-11-30 10:55:14 51°27.78 3°6.057 6.4 304 11 100890 96
2001-11-30 10:55:19 51°27.799 3°6.057 4.7 253 11 100890 96
2001-11-30 10:55:24 51°27.817 3°6.061 2.6 65 11 100890 96
2001-11-30 10:55:29 51°27.835 3°6.068 1.1 243 11 100890 96
2001-11-30 10:55:34 51°27.853 3°6.08 1.4 236 11 100890 96
2001-11-30 10:55:39 51°27.869 3°6.095 0.9 154 11 100890 96
2001-11-30 10:55:43 51°27.881 3°6.11 0.3 145 11 100900 96
2001-11-30 10:55:49 51°27.897 3°6.135 1.3 134 11 100900 96
2001-11-30 10:55:54 51°27.909 3°6.16 1.1 177 11 100910 96
2001-11-30 10:55:59 51°27.918 3°6.187 1.6 268 11 100910 96
2001-11-30 10:56:03 51°27.924 3°6.21 2.3 279 11 100910 96
2001-11-30 10:56:09 51°27.93 3°6.246 3.3 259 11 100910 96
2001-11-30 10:56:14 51°27.935 3°6.276 2.7 242 11 100910 96
2001-11-30 10:56:19 51°27.94 3°6.307 3.4 272 11 100910 96
2001-11-30 10:56:24 51°27.946 3°6.337 2.8 244 11 100920 96
2001-11-30 10:56:29 51°27.951 3°6.368 2.6 226 11 100920 96
2001-11-30 10:56:34 51°27.958 3°6.398 2.3 228 11 100910 96
2001-11-30 10:56:39 51°27.965 3°6.429 1.4 250 11 100910 96
2001-11-30 10:56:44 51°27.973 3°6.459 1.1 263 11 100910 96
2001-11-30 10:56:49 51°27.982 3°6.488 1.2 258 11 100910 96
2001-11-30 10:56:54 51°27.991 3°6.517 1.4 244 11 100910 96
2001-11-30 10:56:59 51°28 3°6.547 1.6 214 11 100910 96
2001-11-30 10:57:04 51°28.009 3°6.576 1.8 230 11 100910 96
2001-11-30 10:57:09 51°28.018 3°6.607 1.2 224 11 100910 96
2001-11-30 10:57:14 51°28.026 3°6.637 1.2 231 11 100920 96
2001-11-30 10:57:19 51°28.036 3°6.666 1.4 233 11 100920 96
2001-11-30 10:57:24 51°28.045 3°6.696 0.9 240 11 100910 96
2001-11-30 10:57:27 51°28.051 3°6.714 0.9 248 11 100910 96
2001-11-30 10:57:34 51°28.064 3°6.755 1.1 233 11 100910 96
2001-11-30 10:57:39 51°28.073 3°6.784 1.5 212 11 100910 96
2001-11-30 10:57:44 51°28.082 3°6.813 1.6 212 11 100910 96
2001-11-30 10:57:49 51°28.092 3°6.843 1.2 207 11 100910 96
2001-11-30 10:57:54 51°28.101 3°6.872 1.4 222 11 100910 96
2001-11-30 10:57:59 51°28.11 3°6.902 1.2 218 11 100910 96
2001-11-30 10:58:04 51°28.12 3°6.931 0.8 218 11 100920 96
2001-11-30 10:58:09 51°28.129 3°6.961 1.7 252 11 100920 96
2001-11-30 10:58:14 51°28.139 3°6.99 1 242 11 100920 96
2001-11-30 10:58:19 51°28.147 3°7.021 1.7 225 11 100920 96
2001-11-30 10:58:23 51°28.155 3°7.045 1.5 224 11 100910 96
2001-11-30 10:58:29 51°28.165 3°7.081 1.5 254 11 100910 96
2001-11-30 10:58:34 51°28.174 3°7.112 1.6 263 11 100910 96
2001-11-30 10:58:39 51°28.182 3°7.143 1.6 234 11 100910 96
2001-11-30 10:58:43 51°28.189 3°7.167 1.5 233 11 100910 96
2001-11-30 10:58:49 51°28.199 3°7.204 1.3 212 11 100910 96
2001-11-30 10:58:54 51°28.208 3°7.234 1.1 208 11 100920 96
2001-11-30 10:58:59 51°28.217 3°7.265 1.6 231 11 100920 96
2001-11-30 10:59:04 51°28.225 3°7.296 1.7 216 11 100910 96
2001-11-30 10:59:07 51°28.23 3°7.314 1.5 263 11 100910 96
2001-11-30 10:59:14 51°28.243 3°7.355 1.5 239 11 100920 96
2001-11-30 10:59:19 51°28.252 3°7.385 1 240 11 100920 96
2001-11-30 10:59:24 51°28.261 3°7.415 1.3 259 11 100910 96
2001-11-30 10:59:29 51°28.271 3°7.444 1.3 223 11 100910 96
2001-11-30 10:59:34 51°28.28 3°7.474 1.4 229 11 100910 96
2001-11-30 10:59:39 51°28.29 3°7.503 1.4 209 11 100910 96
2001-11-30 10:59:43 51°28.298 3°7.527 1.3 225 11 100910 96
2001-11-30 10:59:49 51°28.309 3°7.562 1.1 248 11 100910 96
2001-11-30 10:59:54 51°28.317 3°7.593 1.7 275 11 100910 96
2001-11-30 10:59:59 51°28.327 3°7.622 1.2 234 11 100910 96
2001-11-30 11:00:04 51°28.335 3°7.653 1.8 233 11 100910 96
2001-11-30 11:00:09 51°28.345 3°7.683 1.5 223 11 100910 96
2001-11-30 11:00:14 51°28.353 3°7.713 1.3 229 11 100910 96
2001-11-30 11:00:19 51°28.362 3°7.743 1.5 232 11 100910 96
2001-11-30 11:00:23 51°28.369 3°7.768 1.5 227 11 100920 96
2001-11-30 11:00:27 51°28.376 3°7.792 2.2 228 11 100920 96
2001-11-30 11:00:34 51°28.388 3°7.835 2.5 206 11 100910 96
2001-11-30 11:00:39 51°28.397 3°7.865 1.6 241 11 100910 96
2001-11-30 11:00:44 51°28.405 3°7.896 1.5 244 11 100910 96
2001-11-30 11:00:49 51°28.414 3°7.926 1.5 266 11 100910 96
2001-11-30 11:00:54 51°28.422 3°7.958 1.7 230 11 100910 96
2001-11-30 11:00:59 51°28.431 3°7.988 1.9 228 11 100910 96
2001-11-30 11:01:03 51°28.437 3°8.013 1.6 254 11 100920 96
2001-11-30 11:01:09 51°28.448 3°8.049 2.7 252 11 100920 96
2001-11-30 11:01:14 51°28.457 3°8.08 1.4 185 11 100910 96
2001-11-30 11:01:19 51°28.465 3°8.111 2.4 238 11 100910 96
2001-11-30 11:01:24 51°28.475 3°8.141 1.3 256 11 100910 96
2001-11-30 11:01:29 51°28.483 3°8.172 2 250 11 100910 96
2001-11-30 11:01:34 51°28.493 3°8.202 1.1 272 11 100920 96
2001-11-30 11:01:39 51°28.501 3°8.233 2.1 245 11 100920 96
2001-11-30 11:01:44 51°28.51 3°8.263 1.5 249 11 100920 96
2001-11-30 11:01:49 51°28.519 3°8.293 1.4 256 11 100920 96
2001-11-30 11:01:54 51°28.527 3°8.325 1.5 225 11 100920 96
2001-11-30 11:01:59 51°28.536 3°8.355 2.5 245 11 100920 96
2001-11-30 11:02:04 51°28.545 3°8.386 1.3 281 11 100920 96
2001-11-30 11:02:09 51°28.554 3°8.415 2.3 223 11 100920 96
2001-11-30 11:02:14 51°28.563 3°8.446 1.8 194 11 100920 96
2001-11-30 11:02:19 51°28.572 3°8.476 2.1 227 11 100920 96
2001-11-30 11:02:24 51°28.582 3°8.506 1.2 131 11 100920 96
2001-11-30 11:02:29 51°28.591 3°8.536 1.7 200 11 100920 96
2001-11-30 11:02:34 51°28.6 3°8.566 1.2 193 11 100920 96
2001-11-30 11:02:39 51°28.608 3°8.597 2.3 246 11 100920 96
2001-11-30 11:02:44 51°28.618 3°8.626 1.2 213 11 100920 96
2001-11-30 11:02:48 51°28.625 3°8.651 1.9 219 11 100920 96
2001-11-30 11:02:54 51°28.635 3°8.687 1 254 11 100920 96
2001-11-30 11:02:59 51°28.644 3°8.717 2.5 240 11 100920 96
2001-11-30 11:03:04 51°28.654 3°8.747 1.4 218 11.1 100920 96
2001-11-30 11:03:08 51°28.662 3°8.77 2.9 211 11.1 100920 96
2001-11-30 11:03:14 51°28.672 3°8.806 1.5 185 11 100920 96
2001-11-30 11:03:19 51°28.681 3°8.836 1.8 219 11 100920 96
2001-11-30 11:03:24 51°28.691 3°8.865 1 181 11 100920 96
2001-11-30 11:03:28 51°28.698 3°8.89 1.7 237 11 100920 96
2001-11-30 11:03:34 51°28.71 3°8.925 0.9 222 11 100920 96
2001-11-30 11:03:39 51°28.718 3°8.956 1.8 218 11 100920 96
2001-11-30 11:03:44 51°28.728 3°8.985 1.1 246 11.1 100920 96
2001-11-30 11:03:49 51°28.736 3°9.016 1.3 269 11.1 100920 96
2001-11-30 11:03:54 51°28.746 3°9.045 0.7 222 11 100920 96
2001-11-30 11:03:59 51°28.754 3°9.076 1.1 224 11 100920 96
2001-11-30 11:04:03 51°28.762 3°9.099 1.1 229 11 100920 96
2001-11-30 11:04:08 51°28.77 3°9.129 1.2 236 11 100920 96
2001-11-30 11:04:14 51°28.781 3°9.165 2.7 219 11 100920 96
2001-11-30 11:04:19 51°28.79 3°9.195 1.4 222 11 100920 96
2001-11-30 11:04:23 51°28.798 3°9.219 2.1 235 11 100920 96
2001-11-30 11:04:29 51°28.809 3°9.255 1.6 221 11 100920 96
2001-11-30 11:04:34 51°28.817 3°9.286 2.1 228 11 100920 96
2001-11-30 11:04:39 51°28.827 3°9.316 1.5 244 11 100920 96
2001-11-30 11:04:44 51°28.836 3°9.346 1.8 234 11.1 100920 96
2001-11-30 11:04:49 51°28.845 3°9.375 1.4 201 11.1 100920 96
2001-11-30 11:04:54 51°28.854 3°9.405 1.4 235 11 100910 96
2001-11-30 11:04:59 51°28.863 3°9.435 1.6 241 11 100910 96
2001-11-30 11:05:04 51°28.872 3°9.465 1.2 221 11 100920 96
2001-11-30 11:05:09 51°28.881 3°9.495 1.6 228 11 100920 96
2001-11-30 11:05:14 51°28.891 3°9.524 1.8 222 11 100920 96
2001-11-30 11:05:19 51°28.9 3°9.555 1.5 238 11 100920 96
2001-11-30 11:05:24 51°28.909 3°9.585 1.7 255 11 100920 96
2001-11-30 11:05:29 51°28.918 3°9.615 1 229 11 100920 96
2001-11-30 11:05:34 51°28.927 3°9.645 1.2 206 11 100920 96
2001-11-30 11:05:39 51°28.936 3°9.675 1.6 271 11 100920 96
2001-11-30 11:05:44 51°28.944 3°9.706 2.2 251 11 100920 96
2001-11-30 11:05:49 51°28.951 3°9.738 2.3 262 11 100920 96
2001-11-30 11:05:54 51°28.956 3°9.77 2.7 247 11 100920 96
2001-11-30 11:05:59 51°28.961 3°9.803 2.8 259 11 100920 96
2001-11-30 11:06:04 51°28.964 3°9.835 4.3 262 11 100920 96
2001-11-30 11:06:08 51°28.966 3°9.862 3.9 254 11 100920 96
2001-11-30 11:06:14 51°28.967 3°9.901 4.6 260 11 100920 96
2001-11-30 11:06:19 51°28.967 3°9.934 5.1 264 11 100920 96
2001-11-30 11:06:24 51°28.966 3°9.968 4.3 279 11 100920 96
2001-11-30 11:06:28 51°28.964 3°9.994 5.1 275 11 100920 96
2001-11-30 11:06:34 51°28.959 3°10.033 6.2 269 11 100910 96
2001-11-30 11:06:39 51°28.954 3°10.065 5.5 277 11 100910 96
2001-11-30 11:06:44 51°28.947 3°10.096 5.5 280 11 100910 96
2001-11-30 11:06:49 51°28.939 3°10.126 6.1 287 11 100910 96
2001-11-30 11:06:54 51°28.93 3°10.155 7.5 288 11 100910 96
2001-11-30 11:06:59 51°28.92 3°10.183 8.4 298 11 100910 96
2001-11-30 11:07:04 51°28.908 3°10.209 9.4 297 11 100900 96
2001-11-30 11:07:09 51°28.896 3°10.235 8.7 299 11 100900 96
2001-11-30 11:07:14 51°28.884 3°10.262 7.7 280 11 100900 96
2001-11-30 11:07:19 51°28.872 3°10.289 8.1 285 11 100900 96
2001-11-30 11:07:24 51°28.861 3°10.316 8.5 291 11 100900 96
2001-11-30 11:07:28 51°28.852 3°10.338 8.6 296 11 100900 96
2001-11-30 11:07:34 51°28.839 3°10.371 8.6 290 11 100890 96
2001-11-30 11:07:39 51°28.828 3°10.398 8.4 297 11 100890 96
2001-11-30 11:07:44 51°28.817 3°10.427 7.9 291 11 100900 96
2001-11-30 11:07:49 51°28.806 3°10.454 7.8 289 11 100900 96
2001-11-30 11:07:54 51°28.795 3°10.482 8.2 298 11 100890 96
2001-11-30 11:07:59 51°28.784 3°10.51 7.5 286 11 100890 96
2001-11-30 11:08:04 51°28.774 3°10.539 8.1 286 11 100890 96
2001-11-30 11:08:09 51°28.763 3°10.566 8.7 288 11 100890 96
2001-11-30 11:08:14 51°28.752 3°10.595 8.4 293 11 100890 96
2001-11-30 11:08:19 51°28.742 3°10.623 6.7 284 11 100890 96